| time (UTC) | temp F | wind direction | speed MPH | gust MPH | rain 1hr in | rain 24hr in | rain mn in | humidity % | barometer mb |
| 20260508023436 | 50 | 196 | 0.0 | 0.0 | 0.00 | 0.00 | 0.00 | 54 | 1006.1 |
| 20260508022932 | 50 | 186 | 0.0 | 0.0 | 0.00 | 0.00 | 0.00 | 51 | 1006.1 |
| 20260508022426 | 51 | 180 | 0.0 | 2.0 | 0.00 | 0.00 | 0.00 | 51 | 1006.1 |
| 20260508021918 | 51 | 221 | 0.0 | 2.0 | 0.00 | 0.00 | 0.00 | 50 | 1006.2 |
| 20260508021413 | 51 | 224 | 0.0 | 0.0 | 0.00 | 0.00 | 0.00 | 50 | 1006.2 |
| 20260508020906 | 51 | 224 | 0.0 | 0.0 | 0.00 | 0.00 | 0.00 | 49 | 1006.2 |
| 20260508020401 | 51 | 224 | 0.0 | 0.0 | 0.00 | 0.00 | 0.00 | 49 | 1006.2 |
| 20260508015855 | 51 | 224 | 0.0 | 0.0 | 0.00 | 0.00 | 0.00 | 49 | 1006.0 |
| 20260508015350 | 51 | 224 | 0.0 | 2.0 | 0.00 | 0.00 | 0.00 | 48 | 1005.9 |
| 20260508014841 | 51 | 224 | 0.0 | 2.0 | 0.00 | 0.00 | 0.00 | 47 | 1005.9 |
| 20260508013832 | 51 | 201 | 0.0 | 0.0 | 0.00 | 0.00 | 0.00 | 48 | 1005.8 |
| 20260508013324 | 52 | 243 | 0.0 | 0.0 | 0.00 | 0.00 | 0.00 | 48 | 1005.6 |
| 20260508012818 | 52 | 243 | 0.0 | 0.0 | 0.00 | 0.00 | 0.00 | 47 | 1005.6 |
| 20260508012314 | 52 | 243 | 0.0 | 0.0 | 0.00 | 0.00 | 0.00 | 46 | 1005.6 |
| 20260508011808 | 52 | 248 | 0.0 | 0.0 | 0.00 | 0.00 | 0.00 | 45 | 1005.5 |
| 20260508011301 | 53 | 203 | 0.0 | 0.0 | 0.00 | 0.00 | 0.00 | 44 | 1005.5 |
| 20260508010758 | 53 | 203 | 0.0 | 1.0 | 0.00 | 0.00 | 0.00 | 44 | 1005.4 |
| 20260508010249 | 53 | 219 | 0.0 | 1.0 | 0.00 | 0.00 | 0.00 | 43 | 1005.3 |
| 20260508005742 | 53 | 224 | 0.0 | 2.0 | 0.00 | 0.00 | 0.00 | 43 | 1005.2 |
| 20260508005237 | 54 | 223 | 0.0 | 2.0 | 0.00 | 0.00 | 0.00 | 42 | 1005.2 |
| 20260508004731 | 54 | 246 | 0.0 | 0.0 | 0.00 | 0.00 | 0.00 | 42 | 1005.1 |
| 20260508004223 | 54 | 235 | 0.0 | 0.0 | 0.00 | 0.00 | 0.00 | 41 | 1005.1 |
| 20260508003719 | 54 | 235 | 0.0 | 0.0 | 0.00 | 0.00 | 0.00 | 41 | 1005.1 |
| 20260508003211 | 55 | 233 | 0.0 | 1.0 | 0.00 | 0.00 | 0.00 | 40 | 1005.0 |
| 20260508002705 | 55 | 250 | 0.0 | 3.0 | 0.00 | 0.00 | 0.00 | 40 | 1004.9 |
| 20260508002202 | 55 | 294 | 0.0 | 3.0 | 0.00 | 0.00 | 0.00 | 41 | 1004.8 |
| 20260508001148 | 56 | 314 | 0.0 | 1.0 | 0.00 | 0.00 | 0.00 | 38 | 1004.8 |
| 20260508000136 | 56 | 214 | 1.0 | 4.0 | 0.00 | 0.00 | 0.00 | 38 | 1004.6 |
| 20260507235629 | 56 | 265 | 0.0 | 3.0 | 0.00 | 0.00 | 0.00 | 37 | 1004.6 |
| 20260507234619 | 57 | 335 | 1.0 | 4.0 | 0.00 | 0.00 | 0.00 | 36 | 1004.5 |
| 20260507234111 | 58 | 240 | 0.0 | 4.0 | 0.00 | 0.00 | 0.00 | 35 | 1004.5 |
| 20260507233606 | 58 | 51 | 1.0 | 7.0 | 0.00 | 0.00 | 0.00 | 35 | 1004.5 |
| 20260507233101 | 58 | 312 | 1.0 | 8.0 | 0.00 | 0.00 | 0.00 | 34 | 1004.4 |
| 20260507232553 | 58 | 170 | 1.0 | 8.0 | 0.00 | 0.00 | 0.00 | 34 | 1004.3 |
| 20260507232048 | 59 | 297 | 2.0 | 6.0 | 0.00 | 0.00 | 0.00 | 34 | 1004.2 |
| 20260507231544 | 59 | 209 | 1.0 | 6.0 | 0.00 | 0.00 | 0.00 | 34 | 1004.2 |
| 20260507230529 | 59 | 323 | 1.0 | 9.0 | 0.00 | 0.00 | 0.00 | 33 | 1004.1 |
| 20260507225518 | 60 | 235 | 3.0 | 9.0 | 0.00 | 0.00 | 0.00 | 32 | 1004.1 |
| 20260507225012 | 60 | 249 | 2.0 | 9.0 | 0.00 | 0.00 | 0.00 | 32 | 1004.1 |
| 20260507224507 | 60 | 346 | 1.0 | 6.0 | 0.00 | 0.00 | 0.00 | 32 | 1004.0 |
| 20260507224001 | 61 | 309 | 2.0 | 5.0 | 0.00 | 0.00 | 0.00 | 32 | 1004.0 |
| 20260507223506 | 61 | 31 | 2.0 | 10.0 | 0.00 | 0.00 | 0.00 | 32 | 1004.0 |
| 20260507222951 | 61 | 240 | 2.0 | 10.0 | 0.00 | 0.00 | 0.00 | 32 | 1003.8 |
| 20260507222443 | 62 | 257 | 2.0 | 7.0 | 0.00 | 0.00 | 0.00 | 32 | 1003.8 |
| 20260507221937 | 62 | 288 | 1.0 | 7.0 | 0.00 | 0.00 | 0.00 | 31 | 1003.7 |
| 20260507221432 | 62 | 209 | 1.0 | 12.0 | 0.00 | 0.00 | 0.00 | 31 | 1003.7 |
| 20260507220925 | 62 | 270 | 2.0 | 12.0 | 0.00 | 0.00 | 0.00 | 31 | 1003.6 |
| 20260507220418 | 63 | 133 | 2.0 | 11.0 | 0.00 | 0.00 | 0.00 | 31 | 1003.6 |
| 20260507215406 | 63 | 259 | 2.0 | 7.0 | 0.00 | 0.00 | 0.00 | 33 | 1003.5 |
| 20260507214901 | 63 | 162 | 3.0 | 8.0 | 0.00 | 0.00 | 0.00 | 32 | 1003.5 |
| 20260507214354 | 63 | 312 | 3.0 | 11.0 | 0.00 | 0.00 | 0.00 | 32 | 1003.5 |
| 20260507212837 | 64 | 56 | 2.0 | 13.0 | 0.00 | 0.00 | 0.00 | 30 | 1003.4 |
| 20260507212330 | 63 | 248 | 4.0 | 13.0 | 0.00 | 0.00 | 0.00 | 31 | 1003.4 |
| 20260507211824 | 64 | 304 | 3.0 | 11.0 | 0.00 | 0.00 | 0.00 | 30 | 1003.4 |
| 20260507210813 | 64 | 282 | 3.0 | 10.0 | 0.00 | 0.00 | 0.00 | 30 | 1003.4 |
| 20260507210308 | 64 | 20 | 2.0 | 10.0 | 0.00 | 0.00 | 0.00 | 30 | 1003.4 |
| 20260507205800 | 64 | 221 | 2.0 | 10.0 | 0.00 | 0.00 | 0.00 | 30 | 1003.5 |
| 20260507205254 | 64 | 251 | 2.0 | 10.0 | 0.00 | 0.00 | 0.00 | 31 | 1003.4 |
| 20260507204747 | 64 | 254 | 3.0 | 10.0 | 0.00 | 0.00 | 0.00 | 31 | 1003.4 |
| 20260507204242 | 64 | 278 | 4.0 | 12.0 | 0.00 | 0.00 | 0.00 | 31 | 1003.4 |
| 20260507203736 | 64 | 219 | 4.0 | 12.0 | 0.00 | 0.00 | 0.00 | 31 | 1003.3 |
| 20260507203230 | 64 | 154 | 2.0 | 8.0 | 0.00 | 0.00 | 0.00 | 31 | 1003.4 |
| 20260507202725 | 63 | 316 | 2.0 | 9.0 | 0.00 | 0.00 | 0.00 | 29 | 1003.4 |
| 20260507202219 | 63 | 288 | 4.0 | 13.0 | 0.00 | 0.00 | 0.00 | 30 | 1003.4 |
| 20260507201711 | 63 | 266 | 4.0 | 13.0 | 0.00 | 0.00 | 0.00 | 31 | 1003.4 |
| 20260507201207 | 63 | 134 | 3.0 | 14.0 | 0.00 | 0.00 | 0.00 | 31 | 1003.4 |
| 20260507200659 | 63 | 151 | 3.0 | 14.0 | 0.00 | 0.00 | 0.00 | 30 | 1003.5 |
| 20260507200155 | 63 | 174 | 4.0 | 13.0 | 0.00 | 0.00 | 0.00 | 32 | 1003.5 |
| 20260507195648 | 63 | 195 | 2.0 | 10.0 | 0.00 | 0.00 | 0.00 | 30 | 1003.5 |
| 20260507195146 | 64 | 231 | 2.0 | 9.0 | 0.00 | 0.00 | 0.00 | 33 | 1003.5 |
| 20260507194644 | 63 | 172 | 3.0 | 9.0 | 0.00 | 0.00 | 0.00 | 35 | 1003.5 |
| 20260507194145 | 63 | 309 | 3.0 | 9.0 | 0.00 | 0.00 | 0.00 | 33 | 1003.5 |
| 20260507193646 | 63 | 276 | 3.0 | 9.0 | 0.00 | 0.00 | 0.00 | 33 | 1003.5 |
| 20260507193144 | 63 | 146 | 3.0 | 9.0 | 0.00 | 0.00 | 0.00 | 33 | 1003.5 |
| 20260507192143 | 63 | 253 | 2.0 | 9.0 | 0.00 | 0.00 | 0.00 | 35 | 1003.7 |
| 20260507191645 | 63 | 235 | 3.0 | 7.0 | 0.00 | 0.00 | 0.00 | 33 | 1003.8 |
| 20260507191140 | 63 | 346 | 3.0 | 14.0 | 0.00 | 0.00 | 0.00 | 33 | 1003.8 |
| 20260507190640 | 63 | 274 | 4.0 | 14.0 | 0.00 | 0.00 | 0.00 | 34 | 1003.8 |
| 20260507190139 | 63 | 110 | 4.0 | 11.0 | 0.00 | 0.00 | 0.00 | 33 | 1003.9 |
| 20260507185142 | 63 | 256 | 5.0 | 14.0 | 0.00 | 0.00 | 0.00 | 31 | 1003.9 |
| 20260507184639 | 63 | 262 | 4.0 | 14.0 | 0.00 | 0.00 | 0.00 | 35 | 1003.8 |
| 20260507184140 | 64 | 255 | 3.0 | 9.0 | 0.00 | 0.00 | 0.00 | 35 | 1003.9 |
| 20260507183639 | 63 | 288 | 3.0 | 9.0 | 0.00 | 0.00 | 0.00 | 37 | 1004.0 |
| 20260507182643 | 63 | 257 | 3.0 | 12.0 | 0.00 | 0.00 | 0.00 | 35 | 1004.0 |
| 20260507181642 | 63 | 309 | 3.0 | 11.0 | 0.00 | 0.00 | 0.00 | 34 | 1004.1 |
| 20260507181140 | 63 | 289 | 4.0 | 14.0 | 0.00 | 0.00 | 0.00 | 34 | 1004.2 |
| 20260507180643 | 63 | 328 | 4.0 | 17.0 | 0.00 | 0.00 | 0.00 | 32 | 1004.2 |
| 20260507180138 | 63 | 334 | 3.0 | 17.0 | 0.00 | 0.00 | 0.00 | 33 | 1004.1 |
| 20260507175640 | 63 | 304 | 3.0 | 10.0 | 0.00 | 0.00 | 0.00 | 33 | 1004.2 |
| 20260507175141 | 63 | 314 | 4.0 | 13.0 | 0.00 | 0.00 | 0.00 | 34 | 1004.2 |
| 20260507174134 | 63 | 290 | 3.0 | 10.0 | 0.00 | 0.00 | 0.00 | 38 | 1003.9 |
| 20260507173637 | 62 | 231 | 3.0 | 11.0 | 0.00 | 0.00 | 0.00 | 36 | 1004.0 |
| 20260507172635 | 62 | 264 | 4.0 | 13.0 | 0.00 | 0.00 | 0.00 | 34 | 1004.2 |
| 20260507172136 | 62 | 223 | 4.0 | 13.0 | 0.00 | 0.00 | 0.00 | 37 | 1004.2 |
| 20260507171138 | 63 | 263 | 3.0 | 10.0 | 0.00 | 0.00 | 0.00 | 40 | 1004.2 |
| 20260507170630 | 63 | 230 | 4.0 | 9.0 | 0.00 | 0.00 | 0.00 | 41 | 1004.3 |
| 20260507170129 | 62 | 218 | 4.0 | 9.0 | 0.00 | 0.00 | 0.00 | 44 | 1004.3 |
| 20260507165629 | 62 | 273 | 4.0 | 8.0 | 0.00 | 0.00 | 0.00 | 43 | 1004.4 |
| 20260507165131 | 61 | 229 | 3.0 | 9.0 | 0.00 | 0.00 | 0.00 | 45 | 1004.4 |
| 20260507164628 | 61 | 308 | 4.0 | 9.0 | 0.00 | 0.00 | 0.00 | 49 | 1004.4 |
| 20260507164129 | 60 | 235 | 4.0 | 9.0 | 0.00 | 0.00 | 0.00 | 50 | 1004.6 |
| 20260507163630 | 61 | 128 | 3.0 | 8.0 | 0.00 | 0.00 | 0.00 | 51 | 1004.7 |
| 20260507163131 | 61 | 165 | 3.0 | 8.0 | 0.00 | 0.00 | 0.00 | 52 | 1004.7 |
| 20260507162629 | 60 | 285 | 2.0 | 8.0 | 0.00 | 0.00 | 0.00 | 53 | 1004.8 |
| 20260507162130 | 60 | 271 | 2.0 | 11.0 | 0.00 | 0.00 | 0.00 | 55 | 1004.9 |
| 20260507161135 | 60 | 245 | 2.0 | 9.0 | 0.00 | 0.00 | 0.00 | 53 | 1004.9 |
| 20260507160129 | 61 | 300 | 2.0 | 8.0 | 0.00 | 0.00 | 0.00 | 53 | 1005.0 |
| 20260507155629 | 61 | 33 | 3.0 | 8.0 | 0.00 | 0.00 | 0.00 | 51 | 1005.1 |
| 20260507154619 | 61 | 265 | 3.0 | 11.0 | 0.00 | 0.00 | 0.00 | 54 | 1005.1 |
| 20260507153618 | 60 | 263 | 2.0 | 7.0 | 0.00 | 0.00 | 0.00 | 51 | 1005.2 |
| 20260507153118 | 60 | 331 | 2.0 | 7.0 | 0.00 | 0.00 | 0.00 | 52 | 1005.1 |
| 20260507152616 | 60 | 300 | 2.0 | 7.0 | 0.00 | 0.00 | 0.00 | 51 | 1005.2 |
| 20260507152114 | 59 | 192 | 1.0 | 8.0 | 0.00 | 0.00 | 0.00 | 49 | 1005.2 |
| 20260507151613 | 59 | 191 | 2.0 | 8.0 | 0.00 | 0.00 | 0.00 | 51 | 1005.4 |
| 20260507150610 | 60 | 290 | 3.0 | 7.0 | 0.00 | 0.00 | 0.00 | 49 | 1005.6 |
| 20260507144611 | 60 | 188 | 3.0 | 9.0 | 0.00 | 0.00 | 0.00 | 50 | 1005.7 |
| 20260507144112 | 60 | 229 | 3.0 | 9.0 | 0.00 | 0.00 | 0.00 | 53 | 1005.6 |
| 20260507143612 | 60 | 247 | 2.0 | 6.0 | 0.00 | 0.00 | 0.00 | 54 | 1005.7 |
| 20260507143113 | 59 | 251 | 2.0 | 7.0 | 0.00 | 0.00 | 0.00 | 53 | 1005.6 |
| 20260507142613 | 59 | 200 | 2.0 | 8.0 | 0.00 | 0.00 | 0.00 | 54 | 1005.6 |
| 20260507142110 | 59 | 261 | 2.0 | 8.0 | 0.00 | 0.00 | 0.00 | 54 | 1005.5 |
| 20260507141610 | 58 | 243 | 3.0 | 7.0 | 0.00 | 0.00 | 0.00 | 55 | 1005.6 |
| 20260507141109 | 58 | 238 | 3.0 | 8.0 | 0.00 | 0.00 | 0.00 | 54 | 1005.6 |
| 20260507140609 | 58 | 242 | 2.0 | 8.0 | 0.00 | 0.00 | 0.00 | 55 | 1005.6 |
| 20260507135108 | 57 | 281 | 2.0 | 5.0 | 0.00 | 0.00 | 0.00 | 58 | 1005.5 |
| 20260507134609 | 57 | 264 | 1.0 | 5.0 | 0.00 | 0.00 | 0.00 | 59 | 1005.5 |
| 20260507134110 | 57 | 211 | 1.0 | 6.0 | 0.00 | 0.00 | 0.00 | 59 | 1005.6 |
| 20260507133110 | 56 | 111 | 2.0 | 6.0 | 0.00 | 0.00 | 0.00 | 61 | 1006.0 |
| 20260507132109 | 56 | 255 | 2.0 | 6.0 | 0.00 | 0.00 | 0.00 | 64 | 1006.0 |
| 20260507131608 | 55 | 328 | 2.0 | 6.0 | 0.00 | 0.00 | 0.00 | 66 | 1006.0 |
| 20260507131108 | 55 | 7 | 2.0 | 6.0 | 0.00 | 0.00 | 0.00 | 64 | 1006.1 |
| 20260507130603 | 55 | 334 | 3.0 | 7.0 | 0.00 | 0.00 | 0.00 | 66 | 1006.1 |
| 20260507130115 | 54 | 58 | 3.0 | 7.0 | 0.00 | 0.00 | 0.00 | 65 | 1006.2 |
| 20260507125603 | 55 | 30 | 2.0 | 6.0 | 0.00 | 0.00 | 0.00 | 66 | 1006.2 |
| 20260507125104 | 54 | 148 | 1.0 | 6.0 | 0.00 | 0.00 | 0.00 | 68 | 1006.1 |
| 20260507124602 | 54 | 250 | 2.0 | 6.0 | 0.00 | 0.00 | 0.00 | 68 | 1006.2 |
| 20260507122607 | 53 | 303 | 1.0 | 7.0 | 0.00 | 0.00 | 0.00 | 72 | 1006.1 |
| 20260507122103 | 52 | 295 | 1.0 | 7.0 | 0.00 | 0.00 | 0.00 | 73 | 1006.4 |
| 20260507121604 | 52 | 217 | 1.0 | 6.0 | 0.00 | 0.00 | 0.00 | 75 | 1006.3 |
| 20260507121115 | 51 | 169 | 1.0 | 4.0 | 0.00 | 0.00 | 0.00 | 77 | 1006.4 |
| 20260507120616 | 51 | 289 | 1.0 | 4.0 | 0.00 | 0.00 | 0.00 | 78 | 1006.3 |
| 20260507120115 | 50 | 340 | 1.0 | 6.0 | 0.00 | 0.00 | 0.00 | 79 | 1006.3 |
| 20260507115603 | 50 | 322 | 1.0 | 6.0 | 0.00 | 0.00 | 0.00 | 81 | 1006.3 |
| 20260507115105 | 49 | 279 | 1.0 | 3.0 | 0.00 | 0.00 | 0.00 | 82 | 1006.3 |
| 20260507114605 | 49 | 306 | 1.0 | 4.0 | 0.00 | 0.00 | 0.00 | 82 | 1006.3 |
| 20260507113605 | 49 | 274 | 0.0 | 5.0 | 0.00 | 0.00 | 0.00 | 83 | 1006.2 |
| 20260507113102 | 49 | 339 | 0.0 | 5.0 | 0.00 | 0.00 | 0.00 | 82 | 1005.9 |
| 20260507112604 | 49 | 344 | 0.0 | 1.0 | 0.00 | 0.00 | 0.00 | 83 | 1006.0 |
| 20260507112104 | 49 | 276 | 0.0 | 3.0 | 0.00 | 0.00 | 0.00 | 84 | 1005.9 |
| 20260507111104 | 48 | 320 | 0.0 | 3.0 | 0.00 | 0.00 | 0.00 | 84 | 1006.3 |
| 20260507110604 | 48 | 258 | 1.0 | 3.0 | 0.00 | 0.00 | 0.00 | 84 | 1006.3 |
| 20260507105538 | 0 | 0.0 | 0.0 | 0.00 | 0.00 | 0.00 | 1006.0 | ||
| 20260507105027 | 0 | 0.0 | 0.0 | 0.00 | 0.00 | 0.00 | 1005.6 | ||
| 20260507104524 | 0 | 0.0 | 0.0 | 0.00 | 0.00 | 0.00 | 1005.7 | ||
| 20260507103437 | 0 | 0.0 | 0.0 | 0.00 | 0.00 | 0.00 | 1005.6 | ||
| 20260507102430 | 0 | 0.0 | 0.0 | 0.00 | 0.00 | 0.00 | 1005.6 | ||
| 20260507101428 | 0 | 0.0 | 0.0 | 0.00 | 0.00 | 0.00 | 1005.7 | ||
| 20260507100933 | 0 | 0.0 | 0.0 | 0.00 | 0.00 | 0.00 | 1005.6 | ||
| 20260507100426 | 0 | 0.0 | 0.0 | 0.00 | 0.00 | 0.00 | 1005.5 | ||
| 20260507095924 | 0 | 0.0 | 0.0 | 0.00 | 0.00 | 0.00 | 1005.9 | ||
| 20260507095352 | 0 | 0.0 | 0.0 | 0.00 | 0.00 | 0.00 | 1006.0 | ||
| 20260507094834 | 0 | 0.0 | 0.0 | 0.00 | 0.00 | 0.00 | 1005.7 | ||
| 20260507094334 | 0 | 0.0 | 0.0 | 0.00 | 0.00 | 0.00 | 1005.7 | ||
| 20260507093824 | 0 | 0.0 | 0.0 | 0.00 | 0.00 | 0.00 | 1005.7 | ||
| 20260507093327 | 0 | 0.0 | 0.0 | 0.00 | 0.00 | 0.00 | 1005.4 | ||
| 20260507092825 | 0 | 0.0 | 0.0 | 0.00 | 0.00 | 0.00 | 1005.6 | ||
| 20260507092232 | 0 | 0.0 | 0.0 | 0.00 | 0.00 | 0.00 | 1005.7 | ||
| 20260507091730 | 0 | 0.0 | 0.0 | 0.00 | 0.00 | 0.00 | 1005.7 | ||
| 20260507091220 | 0 | 0.0 | 0.0 | 0.00 | 0.00 | 0.00 | 1005.7 | ||
| 20260507090726 | 0 | 0.0 | 0.0 | 0.00 | 0.00 | 0.00 | 1005.5 | ||
| 20260507090232 | 48 | 0.0 | 2.0 | 0.00 | 0.00 | 0.00 | 87 | 1005.4 | |
| 20260507085210 | 48 | 269 | 1.0 | 7.0 | 0.00 | 0.00 | 0.00 | 87 | 1005.0 |
| 20260507084708 | 49 | 234 | 1.0 | 7.0 | 0.00 | 0.00 | 0.00 | 88 | 1005.3 |
| 20260507084207 | 49 | 269 | 1.0 | 5.0 | 0.00 | 0.00 | 0.00 | 88 | 1005.3 |
| 20260507083707 | 49 | 271 | 1.0 | 5.0 | 0.00 | 0.00 | 0.00 | 88 | 1005.1 |
| 20260507083210 | 49 | 318 | 1.0 | 5.0 | 0.00 | 0.00 | 0.00 | 88 | 1005.0 |
| 20260507082710 | 49 | 234 | 1.0 | 5.0 | 0.00 | 0.00 | 0.00 | 88 | 1005.1 |
| 20260507082202 | 49 | 44 | 1.0 | 3.0 | 0.00 | 0.00 | 0.00 | 87 | 1005.0 |
| 20260507081203 | 50 | 248 | 2.0 | 7.0 | 0.00 | 0.00 | 0.00 | 86 | 1005.1 |
| 20260507080705 | 50 | 288 | 2.0 | 9.0 | 0.00 | 0.00 | 0.00 | 86 | 1005.2 |
| 20260507080202 | 50 | 272 | 2.0 | 9.0 | 0.00 | 0.00 | 0.00 | 85 | 1005.3 |
| 20260507075701 | 50 | 312 | 2.0 | 6.0 | 0.00 | 0.00 | 0.00 | 85 | 1004.9 |
| 20260507075150 | 50 | 205 | 3.0 | 7.0 | 0.00 | 0.00 | 0.00 | 85 | 1005.3 |
| 20260507074649 | 50 | 201 | 2.0 | 8.0 | 0.00 | 0.00 | 0.00 | 85 | 1005.2 |
| 20260507074151 | 50 | 329 | 2.0 | 8.0 | 0.00 | 0.00 | 0.00 | 85 | 1005.1 |
| 20260507073649 | 51 | 232 | 1.0 | 7.0 | 0.00 | 0.00 | 0.00 | 85 | 1005.0 |
| 20260507073147 | 51 | 101 | 2.0 | 7.0 | 0.00 | 0.00 | 0.00 | 85 | 1004.9 |
| 20260507072646 | 51 | 233 | 2.0 | 8.0 | 0.00 | 0.00 | 0.00 | 85 | 1004.6 |
| 20260507072147 | 51 | 339 | 2.0 | 8.0 | 0.00 | 0.00 | 0.00 | 86 | 1004.7 |
| 20260507071645 | 51 | 233 | 1.0 | 8.0 | 0.00 | 0.00 | 0.00 | 87 | 1004.7 |
| 20260507070644 | 51 | 274 | 2.0 | 7.0 | 0.00 | 0.00 | 0.00 | 87 | 1005.0 |
| 20260507070141 | 51 | 310 | 2.0 | 7.0 | 0.00 | 0.00 | 0.00 | 87 | 1004.5 |
| 20260507065639 | 51 | 248 | 2.0 | 8.0 | 0.00 | 0.00 | 0.00 | 87 | 1004.6 |
| 20260507065136 | 51 | 260 | 2.0 | 8.0 | 0.00 | 0.00 | 0.00 | 88 | 1004.6 |
| 20260507064637 | 51 | 267 | 2.0 | 7.0 | 0.00 | 0.00 | 0.00 | 88 | 1004.5 |
| 20260507064137 | 52 | 285 | 2.0 | 11.0 | 0.00 | 0.00 | 0.00 | 88 | 1004.6 |
| 20260507063635 | 52 | 250 | 1.0 | 11.0 | 0.00 | 0.00 | 0.00 | 88 | 1004.4 |
| 20260507063133 | 52 | 273 | 0.0 | 4.0 | 0.00 | 0.00 | 0.00 | 89 | 1004.3 |
| 20260507062627 | 52 | 271 | 1.0 | 5.0 | 0.00 | 0.00 | 0.00 | 89 | 1004.2 |
| 20260507062121 | 52 | 212 | 1.0 | 5.0 | 0.00 | 0.00 | 0.00 | 90 | 1004.5 |
| 20260507061624 | 52 | 243 | 0.0 | 5.0 | 0.00 | 0.00 | 0.00 | 90 | 1004.4 |
| 20260507061118 | 52 | 302 | 0.0 | 3.0 | 0.00 | 0.00 | 0.00 | 90 | 1004.4 |
| 20260507060117 | 53 | 281 | 1.0 | 7.0 | 0.00 | 0.00 | 0.00 | 90 | 1004.5 |
| 20260507055619 | 53 | 280 | 1.0 | 7.0 | 0.00 | 0.00 | 0.00 | 90 | 1004.6 |
| 20260507055119 | 53 | 282 | 1.0 | 6.0 | 0.00 | 0.00 | 0.00 | 91 | 1004.6 |
| 20260507054619 | 53 | 313 | 1.0 | 5.0 | 0.00 | 0.00 | 0.00 | 91 | 1004.7 |
| 20260507053621 | 53 | 293 | 1.0 | 5.0 | 0.00 | 0.00 | 0.00 | 90 | 1004.5 |
| 20260507053119 | 53 | 249 | 2.0 | 8.0 | 0.00 | 0.00 | 0.00 | 90 | 1004.7 |
| 20260507052615 | 53 | 212 | 1.0 | 8.0 | 0.00 | 0.00 | 0.00 | 90 | 1005.0 |
| 20260507051120 | 53 | 246 | 1.0 | 7.0 | 0.00 | 0.00 | 0.00 | 91 | 1004.7 |
| 20260507050615 | 54 | 308 | 1.0 | 7.0 | 0.00 | 0.00 | 0.00 | 91 | 1004.8 |
| 20260507045609 | 54 | 312 | 0.0 | 4.0 | 0.00 | 0.00 | 0.00 | 92 | 1004.7 |
| 20260507044557 | 54 | 307 | 1.0 | 5.0 | 0.00 | 0.00 | 0.00 | 91 | 1004.4 |
| 20260507044052 | 54 | 234 | 2.0 | 8.0 | 0.00 | 0.00 | 0.00 | 91 | 1004.5 |
| 20260507043547 | 55 | 273 | 2.0 | 9.0 | 0.00 | 0.00 | 0.00 | 91 | 1004.4 |
| 20260507043039 | 55 | 230 | 2.0 | 9.0 | 0.00 | 0.00 | 0.00 | 90 | 1004.5 |
| 20260507042534 | 55 | 230 | 2.0 | 8.0 | 0.00 | 0.00 | 0.00 | 90 | 1004.7 |
| 20260507042028 | 56 | 232 | 2.0 | 8.0 | 0.00 | 0.00 | 0.00 | 90 | 1004.7 |
| 20260507041520 | 56 | 265 | 2.0 | 6.0 | 0.00 | 0.00 | 0.00 | 91 | 1004.7 |
| 20260507041014 | 57 | 237 | 2.0 | 8.0 | 0.00 | 0.00 | 0.00 | 91 | 1004.6 |
| 20260507040509 | 57 | 208 | 1.0 | 8.0 | 0.00 | 0.00 | 0.00 | 92 | 1004.5 |
| 20260507040003 | 58 | 276 | 2.0 | 9.0 | 0.00 | 0.00 | 0.00 | 92 | 1004.3 |
| 20260507035457 | 58 | 332 | 3.0 | 9.0 | 0.00 | 0.00 | 0.00 | 92 | 1004.3 |
| 20260507034950 | 59 | 293 | 2.0 | 9.0 | 0.00 | 0.00 | 0.00 | 93 | 1004.2 |
| 20260507033937 | 59 | 311 | 1.0 | 5.0 | 0.00 | 0.00 | 0.00 | 94 | 1004.0 |
| 20260507033435 | 60 | 189 | 2.0 | 9.0 | 0.00 | 0.00 | 0.00 | 94 | 1003.9 |
| 20260507032927 | 60 | 212 | 2.0 | 9.0 | 0.00 | 0.00 | 0.00 | 94 | 1003.7 |
| 20260507032420 | 60 | 214 | 1.0 | 4.0 | 0.00 | 0.00 | 0.00 | 94 | 1003.6 |
| 20260507031914 | 60 | 252 | 2.0 | 10.0 | 0.00 | 0.00 | 0.00 | 94 | 1003.5 |
| 20260507031408 | 60 | 251 | 3.0 | 10.0 | 0.00 | 0.00 | 0.00 | 94 | 1003.4 |
| 20260507030901 | 60 | 180 | 2.0 | 6.0 | 0.00 | 0.00 | 0.00 | 93 | 1003.5 |
| 20260507030356 | 60 | 217 | 2.0 | 8.0 | 0.00 | 0.00 | 0.00 | 93 | 1003.3 |
| 20260507025343 | 60 | 205 | 3.0 | 8.0 | 0.00 | 0.00 | 0.00 | 93 | 1003.4 |
| 20260507024838 | 60 | 212 | 3.0 | 8.0 | 0.00 | 0.00 | 0.00 | 93 | 1003.4 |
| 20260507024333 | 60 | 248 | 3.0 | 10.0 | 0.00 | 0.00 | 0.00 | 93 | 1003.4 |
| 20260507023826 | 60 | 160 | 2.0 | 10.0 | 0.00 | 0.00 | 0.00 | 93 | 1003.5 |